Weather in Budapest

Hungary     47°29′33″N   19°03′05″E
temp.,
°C
wind,
m/s
gust,
m/s
humid.,
%
clouds,
%
prec.,
mm/h
press.,
hPa
HPBL,
m
26 july, mon
mon2623:00+24se3117091 2.2 1012425
02:00+21se310791 3.8 1012319
05:00+20s11765 0.0 101220
08:00+23ssw236119 0.1 1013217
11:00+29ssw23418 0.0 1014903
14:00+33s35302 0.0 10122492
17:00+34sw372993 0.0 10122857
20:00+30sw511346 0.1 1011848
27 july, tue
tue2723:00+27s224255 0.0 101253
02:00+25ssw2546100 0.0 1013155
05:00+24sw28455 0.0 1013285
08:00+24wnw35607 0.0 1014376
11:00+29w344510 0.0 10151104
14:00+32wsw3633100 0.0 10141983
17:00+34sw68278 0.0 10122797
20:00+31sw26346 0.0 1012195
28 july, wed
wed2823:00+27wsw143967 0.0 1013127
02:00+26sw124353 0.0 101351
05:00+25ssw210473 0.0 1012377
08:00+26sw3948100 0.0 1013426
11:00+31wsw47355 0.0 10121454
14:00+34wsw510245 0.0 10112580
17:00+35w5102391 0.0 10093362
20:00+31nnw263576 0.0 1009340
29 july, thu
thu2923:00+25nw4859100 0.0 1012353
02:00+22nw5117368 0.2 1013404
05:00+19nw411800 0.5 1013344
08:00+21nw49670 0.5 1014390
11:00+28nw46320 0.0 1015959
14:00+32nw35220 0.0 10141621
17:00+32nnw33230 0.0 10121904
20:00+29nne24300 0.0 1012137
30 july, fri
fri3023:00+26ne27410 0.0 1012197
02:00+25ne12450 0.0 101146
05:00+23ese11462 0.0 101122
08:00+25e23405 0.0 1011317
11:00+31sse1227100 0.2 10111042
14:00+34w25235 0.2 10091884
17:00+35nw26237 0.1 10062531
20:00+31n11345 0.2 100617